{"data":{"norad_id":68423,"intl_designator":"2026-067H","name":"SPOQC","alt_names":[],"object_type":"PAYLOAD","status":"ACTIVE","operator":null,"country":"NETH","launch_date":"2026-03-30","launch_site_code":"AFWTR","launch_vehicle":null,"mission":null,"orbit_class":"UNKNOWN","rcs_meters":null,"size_class":null,"mass_kg":null,"dimensions":null,"purposes":[],"wikipedia_slug":null,"has_3d_model":false,"image_url":null,"decayed_at":null,"tle_current":{"epoch":"2026-05-24T20:36:54.279648Z","epoch_age_seconds":77431,"freshness":"FRESH","line1":"1 68423U 26067H   26144.85896157  .00004396  00000+0  21573-3 0  9992","line2":"2 68423  97.4489 103.6709 0002132  70.1450 290.0014 15.18605949  8403","mean_motion":15.18605949,"eccentricity":0.0002132,"inclination_deg":97.4489,"raan_deg":103.6709,"arg_perigee_deg":70.145,"mean_anomaly_deg":290.0014,"bstar":0.00021573,"rev_number":840,"period_min":94.823808700884,"perigee_km":508.58431323292,"apogee_km":511.52143739575,"semimajor_km":6888.1898753143,"source":"CELESTRAK","updated_at":"2026-05-25T13:38:07.812311Z"}}}